Regional Weather Roundup
Issued by NWS

Home | Current Version | Previous Version | Graphics & Text | Print | Product List | Glossary On
Versions: 1 2 3 4 5 6 7 8 9 10 11 12 13 14 15 16 17 18 19 20 21 22 23 24 25 26 27 28 29 30 31 32 33 34 35 36 37 38 39 40 41 42 43 44 45 46 47 48 49 50
000
ASUS43 KIND 271909
RWRIN

WEATHER ROUNDUP FOR INDIANA
NATIONAL WEATHER SERVICE INDIANAPOLIS IN
200 PM EST MON FEB 27 2017

NOTE: "FAIR" INDICATES FEW OR NO CLOUDS BELOW 12,000 FEET WITH NO
SIGNIFICANT WEATHER AND/OR OBSTRUCTIONS TO VISIBILITY.

* - STATION DOES NOT REPORT WEATHER SUCH AS PRECIPITATION OR FOG.

+ - STATION NOT QUALITY CONTROLLED BY THE NATIONAL WEATHER SERVICE.
    USE DATA WITH CAUTION...ESPECIALLY DEWPOINT AND RELATIVE
    HUMIDITY OBSERVATIONS.

INZ001>003-010>013-019-020-272000-
NORTHWEST INDIANA

CITY           SKY/WX    TMP DP  RH WIND       PRES   REMARKS
GARY /AIRPORT/ PTSUNNY   52  32  46 S9        30.15F
KNOX *+        CLOUDY    48  14  25 S9        30.16S
LA PORTE +     PTSUNNY   48  35  60 S10       30.15F
MICHIGAN CITY+ PTSUNNY   50  34  53 SW12      30.15F
MONTICELLO +   MOSUNNY   53  32  45 SE5       30.14F
RENSSELAER +   MOSUNNY   54  32  43 S7        30.14F
VALPARAISO     PTSUNNY   51  35  54 VRB7      30.15F

$$

LMZ046-743>745-272000-
SOUTHERN LAKE MICHIGAN

STATION/POSITION TIME  TEMP    WIND        PRES    WAVE
                       AIR SEA DIR/SP/G            HT
                 (UTC) (F)     (DEG/KT/KT) (MB)    (FT)
BURNS HARBOR     1840   48     210/ 11/ 18 1021.3F
MICHIGAN CITY    1830   47     160/ 11/ 13   N/A

$$

INZ004-005-014>016-021>024-272000-
NORTH CENTRAL INDIANA

CITY           SKY/WX    TMP DP  RH WIND       PRES   REMARKS
ELKHART        MOSUNNY   48  32  53 S8        30.17
GOSHEN         PTSUNNY   49  34  56 S10       30.17F
LOGANSPORT +   PTSUNNY   50  34  53 S8        30.17S
PERU/GRISSOM   CLOUDY    53  34  49 S6        30.15F
ROCHESTER +    MOSUNNY   54  32  43 S8        30.17S
SOUTH BEND     MOSUNNY   48  33  56 S10       30.16F
WARSAW +       CLOUDY    48  34  57 SW6       30.17S

$$

INZ006>009-017-018-025>027-272000-
NORTHEAST INDIANA

CITY           SKY/WX    TMP DP  RH WIND       PRES   REMARKS
ANGOLA *+      PTSUNNY   48  36  61 S8        30.16F
AUBURN +       PTSUNNY   46  32  57 S5        30.19S
FORT WAYNE     PTSUNNY   50  33  52 S3        30.18F
HUNTINGTON +   CLOUDY    51  32  48 S6        30.17F
KENDALLVILLE + CLOUDY    47  35  62 S9        30.17F

$$

INZ028-029-035-036-043>045-051>053-272000-
WEST CENTRAL INDIANA

CITY           SKY/WX    TMP DP  RH WIND       PRES   REMARKS
GREENCASTLE +  CLOUDY    52  36  54 S7        30.15F
LAFAYETTE      PTSUNNY   52  35  52 SW8       30.14F
TERRE HAUTE    CLOUDY    55  38  52 SE15      30.13F

$$

INZ030>032-037>040-046>048-054>057-064-065-272000-
CENTRAL INDIANA

CITY           SKY/WX    TMP DP  RH WIND       PRES   REMARKS
CP ATTERBURY + CLOUDY    46  39  76 S9        30.20F
COLUMBUS       CLOUDY    46  43  87 S9        30.21F
FISHERS *+     CLOUDY    50  41  71 S8        30.17F
FRANKFORT +    PTSUNNY   56  38  50 SW3       30.16S
GREENWOOD *+   CLOUDY    49  40  69 SE12      30.18F
INDIANAPOLIS   PTSUNNY   52  37  56 SE13      30.16F
-EAGLE CREEK   CLOUDY    52  36  54 S7        30.16F
KOKOMO +       PTSUNNY   51  35  54 SE7       30.17F
MARION +       PTSUNNY   50  36  57 S10       30.17F
MT COMFORT *+  CLOUDY    50  37  62 S14       30.18F
SHELBYVILLE    CLOUDY    50  38  63 S16       30.19S
ZIONSVILLE +   CLOUDY    50  37  61 S7        30.16F

$$

INZ033-034-041-042-049-050-058-059-272000-
EAST CENTRAL INDIANA

CITY           SKY/WX    TMP DP  RH WIND       PRES   REMARKS
MUNCIE         CLOUDY    50  36  58 S9        30.18F

$$

INZ060-061-067>069-081>083-085>088-272000-
SOUTHWEST INDIANA

CITY           SKY/WX    TMP DP  RH WIND       PRES   REMARKS
EVANSVILLE     CLOUDY    54  45  71 SE5       30.15F
HUNTINGBURG *+ CLOUDY    52  46  82 SE7       30.17F
WASHINGTON +   CLOUDY    51  42  72 SE10      30.16F

$$

INZ062-063-066-070>080-084-089>092-272000-
SOUTH CENTRAL AND SOUTHEAST INDIANA

CITY           SKY/WX    TMP DP  RH WIND       PRES   REMARKS
BEDFORD +      DRIZZLE   46  43  87 E3        30.18F
BLOOMINGTON    CLOUDY    49  39  68 SE12      30.16F
MADISON *+     CLOUDY    45  43  93 CALM      30.22F
NORTH VERNON + LGT RAIN N/A N/A N/A SE8       30.22F
SEYMOUR +      CLOUDY    48  46  93 SE10      30.19F

$$





USA.gov is the U.S. government's official web portal to all federal, state and local government web resources and services.